Weather in Staraya Andreyevka

Russia / Penza Oblast     52°50′19″N   46°38′36″E
temp.,
°C
wind,
m/s
gust,
m/s
humid.,
%
clouds,
%
prec.,
mm/h
press.,
hPa
HPBL,
m
1 march, mon
mon100:00−18nnw349676 0.0 101965
03:00−19nw349838 0.0 102163
06:00−20nw34992 0.0 102249
09:00−16nw47951 0.0 1024221
12:00−11wnw359161 0.0 1024354
15:00−9wnw479173 0.0 1024439
18:00−13wnw469690 0.0 102397
21:00−15w469770 0.0 102392
2 march, tue
tue200:00−12wsw5109684 0.0 1021232
03:00−9wsw6139592 0.1 1018421
06:00−6wsw71493100 0.5 1014541
09:00−3wsw81495100 1.2 1011645
12:00−1wsw81493100 0.3 1008713
15:000wsw91597100 0.8 1006836
18:000wnw61298100 1.4 1004677
21:00−3wnw499398 1.6 1005242
3 march, wed
wed300:00−5wnw489795 0.1 1005190
03:00−6wnw379796 0.1 1006157
06:00−9wnw369876 0.0 100696
09:00−7nw489682 0.1 1007288
12:00−3nw589095 0.1 1007711
15:00−4nw698797 0.3 1008870
18:00−7nw51193100 0.1 1010435
21:00−7nw6128999 0.2 1012661
4 march, thu
thu400:00−10wnw5119585 0.0 1012239
03:00−10w4109783 0.1 1012219
06:00−9w5129596 0.1 1012315
09:00−4wsw7129198 0.2 1011804
12:00−3wsw81291100 0.1 1009910
15:00−1wsw91487100 0.3 1007914
18:00−1wsw91789100 0.0 1004827
21:00−1wsw91787100 0.0 1003919
5 march, fri
fri500:00−2wsw9178453 0.0 1002786
03:00−2wsw8179072 0.0 1002673
06:00−1w7139499 0.1 1004809
09:00−2nnw3691100 0.5 1007491
12:00−2nw248397 0.0 1009526
15:00−2wnw238497 0.0 1011531
18:00−5nw2288100 0.0 101321
21:00−7n2289100 0.0 101421